Odi Airport

Jump to: basic info | weather | comments

Related pages: nearby airports | nearby navaids | notams | map

Basic information (top)

Codes: FAIO
Location: lon -25.549999, lat 27.933001, elev 3,862 ft / 1,177 m msl
Status: small_airport

Weather (top)

Current conditions for Wonderboom Airport 17nm (31km) ESE (rec'd 2014/09/21 05:00Z):

FAWB 210500Z AUTO 06005KT //// 12/07 Q1028

Airport forecast for Wonderboom Airport 17nm (31km) ESE (rec'd 2014/09/10 07:00Z):

TAF FAWB 100600Z 1007/1018 VRB02KT CAVOK 
      BECMG 1010/1012 32010KT TX31/1012ZTN17/1018Z

Latest comments (top)

Runway Details: Runways: 10 & 29 Runway Length = ... [read]

More... (top)

See also NOTAMs and nearby airports and navaids, or visit the Odi Airport page at the main OurAirports website..